,,Stat6,,Stat2,,Stat8,,Stat9,,Stat10,,Wind1,,Wind1,
time,status,PA1M_AVG,status,PR1M_SUM,status,RH1M_AVG,status,SR1M_AVG,status,TA1M_AVG,status,W1dAve1m,status,W1sAve1m,
2004-04-15, 00:00:00,VALID,918.383,VALID,0,VALID,100,VALID,-0.0169808,VALID,20.097,VALID,110,VALID,0.381214,
2004-04-15, 00:01:00,VALID,918.391,VALID,0,VALID,100,VALID,0,VALID,20.0838,VALID,110,VALID,0.439503,
2004-04-15, 00:02:00,VALID,918.405,VALID,0,VALID,100,VALID,-0.0679233,VALID,20.0908,VALID,110,VALID,0.583705,
2004-04-15, 00:03:00,VALID,918.424,VALID,0,VALID,100,VALID,-0.118866,VALID,20.1208,VALID,110,VALID,0.326079,
2004-04-15, 00:04:00,VALID,918.426,VALID,0,VALID,100,VALID,-0.101885,VALID,20.1303,VALID,110,VALID,0.293341,
2004-04-15, 00:05:00,VALID,918.434,VALID,0,VALID,100,VALID,-0.101885,VALID,20.1173,VALID,108,VALID,0.488086,
2004-04-15, 00:06:00,VALID,918.433,VALID,0,VALID,100,VALID,-0.101885,VALID,20.1139,VALID,108,VALID,0.50657,
2004-04-15, 00:07:00,VALID,918.447,VALID,0,VALID,100,VALID,-0.118866,VALID,20.1144,VALID,108,VALID,0.551758,
2004-04-15, 00:08:00,VALID,918.438,VALID,0,VALID,100,VALID,-0.169808,VALID,20.1273,VALID,108,VALID,0.39881,
2004-04-15, 00:09:00,VALID,918.421,VALID,0,VALID,100,VALID,-0.152827,VALID,20.1238,VALID,108,VALID,0.456836,
2004-04-15, 00:10:00,VALID,918.404,VALID,0,VALID,100,VALID,-0.152827,VALID,20.1365,VALID,108,VALID,0.321057,
2004-04-15, 00:11:00,VALID,918.367,VALID,0,VALID,100,VALID,-0.135847,VALID,20.1502,VALID,108,VALID,0.192522,
2004-04-15, 00:12:00,VALID,918.344,VALID,0,VALID,100,VALID,-0.118866,VALID,20.1661,VALID,108,VALID,0.217115,
2004-04-15, 00:13:00,VALID,918.312,VALID,0,VALID,100,VALID,-0.135847,VALID,20.1889,VALID,108,VALID,0.275746,
2004-04-15, 00:14:00,VALID,918.304,VALID,0,VALID,100,VALID,-0.101885,VALID,20.1949,VALID,108,VALID,0.0482088,
2004-04-15, 00:15:00,VALID,918.273,VALID,0,VALID,100,VALID,-0.118866,VALID,20.2341,VALID,108,VALID,0.097202,
2004-04-15, 00:16:00,VALID,918.242,VALID,0,VALID,100,VALID,-0.135847,VALID,20.2431,VALID,108,VALID,0.18099,
2004-04-15, 00:17:00,VALID,918.211,VALID,0,VALID,100,VALID,-0.0509425,VALID,20.2716,VALID,108,VALID,0.298692,
2004-04-15, 00:18:00,VALID,918.18,VALID,0,VALID,100,VALID,-0.0169808,VALID,20.2805,VALID,108,VALID,0.434482,
2004-04-15, 00:19:00,VALID,918.15,VALID,0,VALID,100,VALID,0,VALID,20.2674,VALID,107,VALID,0.414444,
2004-04-15, 00:20:00,VALID,918.123,VALID,0,VALID,100,VALID,0,VALID,20.2647,VALID,100,VALID,0.610102,
2004-04-15, 00:21:00,VALID,918.102,VALID,0,VALID,100,VALID,-0.0169808,VALID,20.2614,VALID,94,VALID,0.708398,
2004-04-15, 00:22:00,VALID,918.075,VALID,0,VALID,100,VALID,0,VALID,20.2612,VALID,90,VALID,0.669398,
2004-04-15, 00:23:00,VALID,918.045,VALID,0,VALID,100,VALID,0,VALID,20.2647,VALID,98,VALID,0.842478,
2004-04-15, 00:24:00,VALID,918.023,VALID,0,VALID,100,VALID,0,VALID,20.2873,VALID,116,VALID,0.923064,
2004-04-15, 00:25:00,VALID,918,VALID,0,VALID,100,VALID,0,VALID,20.2773,VALID,126,VALID,1.15128,
2004-04-15, 00:26:00,VALID,917.985,VALID,0,VALID,100,VALID,-0.0169808,VALID,20.2905,VALID,130,VALID,1.10039,
2004-04-15, 00:27:00,VALID,917.971,VALID,0,VALID,100,VALID,0,VALID,20.2967,VALID,135,VALID,1.02028,
2004-04-15, 00:28:00,VALID,917.963,VALID,0,VALID,100,VALID,0,VALID,20.2999,VALID,132,VALID,0.841667,
2004-04-15, 00:29:00,VALID,917.96,VALID,0,VALID,100,VALID,-0.0169808,VALID,20.3163,VALID,134,VALID,0.481326,
2004-04-15, 00:30:00,VALID,917.963,VALID,0,VALID,100,VALID,0,VALID,20.3099,VALID,137,VALID,0.460211,
2004-04-15, 00:31:00,VALID,917.957,VALID,0,VALID,100,VALID,0,VALID,20.3034,VALID,121,VALID,0.900799,
2004-04-15, 00:32:00,VALID,917.966,VALID,0,VALID,100,VALID,0,VALID,20.2833,VALID,121,VALID,0.986555,
2004-04-15, 00:33:00,VALID,917.955,VALID,0,VALID,100,VALID,-0.0169808,VALID,20.2731,VALID,125,VALID,0.997713,
2004-04-15, 00:34:00,VALID,917.949,VALID,0,VALID,100,VALID,0.0169808,VALID,20.2631,VALID,124,VALID,0.867361,
2004-04-15, 00:35:00,VALID,917.945,VALID,0,VALID,100,VALID,0,VALID,20.2432,VALID,114,VALID,0.922045,
2004-04-15, 00:36:00,VALID,917.92,VALID,0,VALID,100,VALID,0.0169808,VALID,20.2472,VALID,105,VALID,0.862723,
2004-04-15, 00:37:00,VALID,917.917,VALID,0,VALID,100,VALID,0.0169808,VALID,20.2507,VALID,98,VALID,0.830602,
2004-04-15, 00:38:00,VALID,917.909,VALID,0,VALID,100,VALID,0.0509425,VALID,20.2599,VALID,94,VALID,0.613814,
2004-04-15, 00:39:00,VALID,917.889,VALID,0,VALID,100,VALID,0,VALID,20.2532,VALID,96,VALID,0.65843,
2004-04-15, 00:40:00,VALID,917.887,VALID,0,VALID,100,VALID,0.0339617,VALID,20.2564,VALID,101,VALID,0.660689,
2004-04-15, 00:41:00,VALID,917.89,VALID,0,VALID,100,VALID,0.0169808,VALID,20.2666,VALID,99,VALID,0.736919,
2004-04-15, 00:42:00,VALID,917.878,VALID,0,VALID,100,VALID,0,VALID,20.2822,VALID,77,VALID,0.645952,
2004-04-15, 00:43:00,VALID,917.867,VALID,0,VALID,100,VALID,0.0169808,VALID,20.3088,VALID,57,VALID,0.726172,
2004-04-15, 00:44:00,VALID,917.854,VALID,0,VALID,100,VALID,0.0169808,VALID,20.2919,VALID,54,VALID,0.794331,
2004-04-15, 00:45:00,VALID,917.834,VALID,0,VALID,100,VALID,0.0169808,VALID,20.3054,VALID,54,VALID,0.650931,
2004-04-15, 00:46:00,VALID,917.824,VALID,0,VALID,100,VALID,0.0169808,VALID,20.3088,VALID,58,VALID,0.690039,
2004-04-15, 00:47:00,VALID,917.807,VALID,0,VALID,100,VALID,0.0169808,VALID,20.2984,VALID,54,VALID,0.66915,
2004-04-15, 00:48:00,VALID,917.782,VALID,0,VALID,100,VALID,0,VALID,20.3054,VALID,54,VALID,0.484933,
2004-04-15, 00:49:00,VALID,917.762,VALID,0,VALID,100,VALID,0.0169808,VALID,20.3019,VALID,54,VALID,0.367932,
2004-04-15, 00:50:00,VALID,917.753,VALID,0,VALID,100,VALID,0,VALID,20.2919,VALID,54,VALID,0.312686,
2004-04-15, 00:51:00,VALID,917.735,VALID,0,VALID,100,VALID,0,VALID,20.3051,VALID,54,VALID,0.274891,
2004-04-15, 00:52:00,VALID,917.709,VALID,0,VALID,100,VALID,0.0169808,VALID,20.2952,VALID,54,VALID,0.324963,
2004-04-15, 00:53:00,VALID,917.684,VALID,0,VALID,100,VALID,0.0679233,VALID,20.3016,VALID,54,VALID,0.505208,
2004-04-15, 00:54:00,VALID,917.648,VALID,0,VALID,100,VALID,0.0679233,VALID,20.2949,VALID,54,VALID,0.466146,
2004-04-15, 00:55:00,VALID,917.62,VALID,0,VALID,100,VALID,0.0509425,VALID,20.2917,VALID,54,VALID,0.566236,
2004-04-15, 00:56:00,VALID,917.589,VALID,0,VALID,100,VALID,0.0509425,VALID,20.3046,VALID,54,VALID,0.587391,
2004-04-15, 00:57:00,VALID,917.56,VALID,0,VALID,100,VALID,0.0169808,VALID,20.3113,VALID,56,VALID,0.479421,
2004-04-15, 00:58:00,VALID,917.532,VALID,0,VALID,100,VALID,0.0339617,VALID,20.3207,VALID,64,VALID,0.610677,
2004-04-15, 00:59:00,VALID,917.51,VALID,0,VALID,100,VALID,0.0339617,VALID,20.2984,VALID,80,VALID,0.736607,
2004-04-15, 01:00:00,VALID,917.489,VALID,0,VALID,100,VALID,0.0339617,VALID,20.3081,VALID,95,VALID,0.7875,
2004-04-15, 01:01:00,VALID,917.475,VALID,0,VALID,100,VALID,0.0169808,VALID,20.3148,VALID,104,VALID,0.753634,
2004-04-15, 01:02:00,VALID,917.461,VALID,0,VALID,100,VALID,-0.0509425,VALID,20.325,VALID,120,VALID,0.877418,
2004-04-15, 01:03:00,VALID,917.445,VALID,0,VALID,100,VALID,-0.0849042,VALID,20.3417,VALID,127,VALID,0.892578,
2004-04-15, 01:04:00,VALID,917.435,VALID,0,VALID,100,VALID,-0.0679233,VALID,20.3613,VALID,120,VALID,0.776163,
2004-04-15, 01:05:00,VALID,917.418,VALID,0,VALID,100,VALID,-0.0509425,VALID,20.3546,VALID,122,VALID,0.724787,
2004-04-15, 01:06:00,VALID,917.4,VALID,0,VALID,100,VALID,-0.0509425,VALID,20.3581,VALID,120,VALID,0.725586,
2004-04-15, 01:07:00,VALID,917.378,VALID,0,VALID,100,VALID,-0.0679233,VALID,20.3446,VALID,101,VALID,0.630526,
2004-04-15, 01:08:00,VALID,917.358,VALID,0,VALID,100,VALID,-0.0169808,VALID,20.3546,VALID,99,VALID,0.155342,
2004-04-15, 01:09:00,VALID,917.331,VALID,0,VALID,100,VALID,-0.0169808,VALID,20.3546,VALID,99,VALID,0.0187872,
2004-04-15, 01:10:00,VALID,917.303,VALID,0,VALID,100,VALID,-0.0339617,VALID,20.3548,VALID,99,VALID,0.0241642,
2004-04-15, 01:11:00,VALID,917.288,VALID,0,VALID,100,VALID,-0.0509425,VALID,20.3578,VALID,99,VALID,0.238095,
2004-04-15, 01:12:00,VALID,917.269,VALID,0,VALID,100,VALID,-0.0169808,VALID,20.3605,VALID,99,VALID,0.379808,
2004-04-15, 01:13:00,VALID,917.243,VALID,0,VALID,100,VALID,-0.0509425,VALID,20.3613,VALID,99,VALID,0.322545,
2004-04-15, 01:14:00,VALID,917.226,VALID,0,VALID,100,VALID,-0.0509425,VALID,20.3643,VALID,99,VALID,0.319041,
2004-04-15, 01:15:00,VALID,917.224,VALID,0,VALID,100,VALID,-0.0679233,VALID,20.3648,VALID,99,VALID,0.218205,
2004-04-15, 01:16:00,VALID,917.23,VALID,0,VALID,100,VALID,-0.0679233,VALID,20.3777,VALID,99,VALID,0.0873397,
2004-04-15, 01:17:00,VALID,917.22,VALID,0,VALID,100,VALID,-0.0509425,VALID,20.3575,VALID,99,VALID,0.0759943,
2004-04-15, 01:18:00,VALID,917.208,VALID,0,VALID,100,VALID,-0.0339617,VALID,20.3734,VALID,96,VALID,0.161014,
2004-04-15, 01:19:00,VALID,917.195,VALID,0,VALID,100,VALID,-0.0849042,VALID,20.3836,VALID,79,VALID,0.394531,
2004-04-15, 01:20:00,VALID,917.181,VALID,0,VALID,100,VALID,-0.0509425,VALID,20.3973,VALID,78,VALID,0.379616,
2004-04-15, 01:21:00,VALID,917.164,VALID,0,VALID,100,VALID,-0.0849042,VALID,20.3904,VALID,70,VALID,0.507813,
2004-04-15, 01:22:00,VALID,917.154,VALID,0,VALID,100,VALID,-0.0849042,VALID,20.3904,VALID,70,VALID,0.336128,
2004-04-15, 01:23:00,VALID,917.13,VALID,0,VALID,100,VALID,-0.0679233,VALID,20.4,VALID,70,VALID,0.315163,
2004-04-15, 01:24:00,VALID,917.132,VALID,0,VALID,100,VALID,-0.101885,VALID,20.3966,VALID,70,VALID,0.287972,
2004-04-15, 01:25:00,VALID,917.13,VALID,0,VALID,100,VALID,-0.0849042,VALID,20.3742,VALID,70,VALID,0.466082,
2004-04-15, 01:26:00,VALID,917.119,VALID,0,VALID,100,VALID,-0.0849042,VALID,20.371,VALID,70,VALID,0.653054,
2004-04-15, 01:27:00,VALID,917.122,VALID,0,VALID,100,VALID,-0.0849042,VALID,20.3519,VALID,77,VALID,0.689135,
2004-04-15, 01:28:00,VALID,917.118,VALID,0,VALID,100,VALID,-0.0679233,VALID,20.3516,VALID,101,VALID,0.903392,
2004-04-15, 01:29:00,VALID,917.108,VALID,0,VALID,100,VALID,-0.0849042,VALID,20.361,VALID,122,VALID,1.0731,
2004-04-15, 01:30:00,VALID,917.104,VALID,0,VALID,100,VALID,-0.0849042,VALID,20.3615,VALID,123,VALID,0.833147,
2004-04-15, 01:31:00,VALID,917.091,VALID,0,VALID,100,VALID,-0.0849042,VALID,20.3675,VALID,124,VALID,0.674183,
2004-04-15, 01:32:00,VALID,917.072,VALID,0,VALID,100,VALID,-0.0849042,VALID,20.3847,VALID,141,VALID,0.834985,
2004-04-15, 01:33:00,VALID,917.049,VALID,0,VALID,100,VALID,-0.0679233,VALID,20.3847,VALID,135,VALID,0.968559,
2004-04-15, 01:34:00,VALID,917.031,VALID,0,VALID,100,VALID,-0.118866,VALID,20.3817,VALID,133,VALID,0.904514,
2004-04-15, 01:35:00,VALID,917.005,VALID,0,VALID,100,VALID,-0.118866,VALID,20.3887,VALID,129,VALID,0.714489,
2004-04-15, 01:36:00,VALID,916.996,VALID,0,VALID,100,VALID,-0.101885,VALID,20.3951,VALID,125,VALID,0.482558,
2004-04-15, 01:37:00,VALID,916.989,VALID,0,VALID,100,VALID,-0.101885,VALID,20.3944,VALID,110,VALID,0.588956,
2004-04-15, 01:38:00,VALID,916.975,VALID,0,VALID,100,VALID,-0.101885,VALID,20.3978,VALID,93,VALID,0.705529,
2004-04-15, 01:39:00,VALID,916.982,VALID,0,VALID,100,VALID,-0.118866,VALID,20.382,VALID,96,VALID,0.593006,
2004-04-15, 01:40:00,VALID,916.978,VALID,0,VALID,100,VALID,-0.0849042,VALID,20.375,VALID,96,VALID,0.608041,
2004-04-15, 01:41:00,VALID,916.972,VALID,0,VALID,100,VALID,-0.0849042,VALID,20.375,VALID,73,VALID,0.598656,
2004-04-15, 01:42:00,VALID,916.967,VALID,0,VALID,100,VALID,-0.101885,VALID,20.382,VALID,101,VALID,0.836868,
2004-04-15, 01:43:00,VALID,916.962,VALID,0,VALID,100,VALID,-0.101885,VALID,20.3526,VALID,96,VALID,0.630145,
2004-04-15, 01:44:00,VALID,916.963,VALID,0,VALID,100,VALID,-0.101885,VALID,20.3462,VALID,102,VALID,0.975,
2004-04-15, 01:45:00,VALID,916.971,VALID,0,VALID,100,VALID,-0.0849042,VALID,20.3464,VALID,99,VALID,0.892361,
2004-04-15, 01:46:00,VALID,916.972,VALID,0,VALID,100,VALID,-0.118866,VALID,20.3335,VALID,109,VALID,1.04724,
2004-04-15, 01:47:00,VALID,916.974,VALID,0,VALID,100,VALID,-0.0509425,VALID,20.336,VALID,111,VALID,0.985547,
2004-04-15, 01:48:00,VALID,916.981,VALID,0,VALID,100,VALID,0.0169808,VALID,20.3285,VALID,105,VALID,1.04609,
2004-04-15, 01:49:00,VALID,916.975,VALID,0,VALID,100,VALID,-0.0339617,VALID,20.3282,VALID,120,VALID,0.829215,
2004-04-15, 01:50:00,VALID,916.996,VALID,0,VALID,100,VALID,0,VALID,20.3481,VALID,131,VALID,0.605378,
2004-04-15, 01:51:00,VALID,917.004,VALID,0,VALID,100,VALID,0,VALID,20.3506,VALID,131,VALID,0.515625,
2004-04-15, 01:52:00,VALID,916.982,VALID,0,VALID,100,VALID,-0.0509425,VALID,20.3511,VALID,128,VALID,0.689977,
2004-04-15, 01:53:00,VALID,916.984,VALID,0,VALID,100,VALID,0,VALID,20.3543,VALID,117,VALID,0.625762,
2004-04-15, 01:54:00,VALID,916.961,VALID,0,VALID,100,VALID,0.0169808,VALID,20.3411,VALID,117,VALID,0.24272,
2004-04-15, 01:55:00,VALID,916.954,VALID,0,VALID,100,VALID,0.0339617,VALID,20.3546,VALID,117,VALID,0.0457317,
2004-04-15, 01:56:00,VALID,916.94,VALID,0,VALID,100,VALID,-0.0339617,VALID,20.367,VALID,117,VALID,0.0101562,
2004-04-15, 01:57:00,VALID,916.914,VALID,0,VALID,100,VALID,0.0169808,VALID,20.3734,VALID,117,VALID,0.177689,
2004-04-15, 01:58:00,VALID,916.901,VALID,0,VALID,100,VALID,0,VALID,20.361,VALID,117,VALID,0.0571057,
2004-04-15, 01:59:00,VALID,916.885,VALID,0,VALID,100,VALID,0,VALID,20.3608,VALID,117,VALID,0.0308866,
2004-04-15, 02:00:00,VALID,916.867,VALID,0,VALID,100,VALID,0,VALID,20.3675,VALID,117,VALID,0.259146,
2004-04-15, 02:01:00,VALID,916.855,VALID,0,VALID,100,VALID,0,VALID,20.3643,VALID,117,VALID,0.240327,
2004-04-15, 02:02:00,VALID,916.849,VALID,0,VALID,100,VALID,0,VALID,20.3501,VALID,117,VALID,0.282738,
2004-04-15, 02:03:00,VALID,916.834,VALID,0,VALID,100,VALID,0,VALID,20.3799,VALID,117,VALID,0.491806,
2004-04-15, 02:04:00,VALID,916.819,VALID,0,VALID,100,VALID,0.0169808,VALID,20.3829,VALID,117,VALID,0.588867,
2004-04-15, 02:05:00,VALID,916.809,VALID,0,VALID,100,VALID,0.0169808,VALID,20.3926,VALID,117,VALID,0.504573,
2004-04-15, 02:06:00,VALID,916.799,VALID,0,VALID,100,VALID,0,VALID,20.3995,VALID,122,VALID,0.599964,
2004-04-15, 02:07:00,VALID,916.793,VALID,0,VALID,100,VALID,0,VALID,20.4025,VALID,125,VALID,0.716319,
2004-04-15, 02:08:00,VALID,916.783,VALID,0,VALID,100,VALID,0.0169808,VALID,20.4122,VALID,129,VALID,0.724201,
2004-04-15, 02:09:00,VALID,916.774,VALID,0,VALID,100,VALID,0.0169808,VALID,20.4291,VALID,142,VALID,0.726372,
2004-04-15, 02:10:00,VALID,916.763,VALID,0,VALID,100,VALID,0,VALID,20.4251,VALID,138,VALID,0.639291,
2004-04-15, 02:11:00,VALID,916.76,VALID,0,VALID,100,VALID,0.0169808,VALID,20.4281,VALID,138,VALID,0.518415,
2004-04-15, 02:12:00,VALID,916.76,VALID,0,VALID,100,VALID,0.0169808,VALID,20.4415,VALID,126,VALID,0.552144,
2004-04-15, 02:13:00,VALID,916.765,VALID,0,VALID,100,VALID,0,VALID,20.4542,VALID,111,VALID,0.457031,
2004-04-15, 02:14:00,VALID,916.758,VALID,0,VALID,100,VALID,0,VALID,20.4445,VALID,118,VALID,0.855378,
2004-04-15, 02:15:00,VALID,916.76,VALID,0,VALID,100,VALID,0,VALID,20.4544,VALID,123,VALID,1.03164,
2004-04-15, 02:16:00,VALID,916.731,VALID,0,VALID,100,VALID,0,VALID,20.4547,VALID,120,VALID,0.946243,
2004-04-15, 02:17:00,VALID,916.699,VALID,0,VALID,100,VALID,-0.0169808,VALID,20.4609,VALID,120,VALID,1.06339,
2004-04-15, 02:18:00,VALID,916.659,VALID,0,VALID,100,VALID,0,VALID,20.4485,VALID,116,VALID,1.32813,
2004-04-15, 02:19:00,VALID,916.63,VALID,0,VALID,100,VALID,0,VALID,20.445,VALID,121,VALID,1.36071,
2004-04-15, 02:20:00,VALID,916.611,VALID,0,VALID,100,VALID,-0.0169808,VALID,20.4321,VALID,126,VALID,1.39311,
2004-04-15, 02:21:00,VALID,916.575,VALID,0,VALID,100,VALID,-0.0169808,VALID,20.4348,VALID,121,VALID,1.13826,
2004-04-15, 02:22:00,VALID,916.554,VALID,0,VALID,100,VALID,0.0169808,VALID,20.4348,VALID,121,VALID,1.24146,
2004-04-15, 02:23:00,VALID,916.538,VALID,0,VALID,100,VALID,-0.0339617,VALID,20.445,VALID,117,VALID,1.16871,
2004-04-15, 02:24:00,VALID,916.538,VALID,0,VALID,100,VALID,-0.0169808,VALID,20.4356,VALID,98,VALID,0.788086,
2004-04-15, 02:25:00,VALID,916.519,VALID,0,VALID,100,VALID,-0.0169808,VALID,20.4385,VALID,81,VALID,0.996094,
2004-04-15, 02:26:00,VALID,916.511,VALID,0,VALID,100,VALID,0,VALID,20.4283,VALID,67,VALID,0.918605,
2004-04-15, 02:27:00,VALID,916.507,VALID,0,VALID,100,VALID,0.0339617,VALID,20.4216,VALID,68,VALID,1.06392,
2004-04-15, 02:28:00,VALID,916.492,VALID,0,VALID,100,VALID,0,VALID,20.4184,VALID,71,VALID,1.03281,
2004-04-15, 02:29:00,VALID,916.495,VALID,0,VALID,100,VALID,0,VALID,20.4256,VALID,50,VALID,0.634411,
2004-04-15, 02:30:00,VALID,916.499,VALID,0,VALID,100,VALID,0,VALID,20.4154,VALID,48,VALID,0.423363,
2004-04-15, 02:31:00,VALID,916.491,VALID,0,VALID,100,VALID,-0.0339617,VALID,20.4122,VALID,66,VALID,0.729833,
2004-04-15, 02:32:00,VALID,916.486,VALID,0,VALID,100,VALID,0.0169808,VALID,20.4057,VALID,92,VALID,0.434832,
2004-04-15, 02:33:00,VALID,916.488,VALID,0,VALID,100,VALID,0,VALID,20.3953,VALID,93,VALID,0.332986,
2004-04-15, 02:34:00,VALID,916.5,VALID,0,VALID,100,VALID,0.0169808,VALID,20.3953,VALID,127,VALID,0.575763,
2004-04-15, 02:35:00,VALID,916.496,VALID,0,VALID,100,VALID,0.0339617,VALID,20.4047,VALID,147,VALID,0.707639,
2004-04-15, 02:36:00,VALID,916.5,VALID,0,VALID,100,VALID,0,VALID,20.4114,VALID,148,VALID,0.969703,
2004-04-15, 02:37:00,VALID,916.51,VALID,0,VALID,100,VALID,0.0339617,VALID,20.392,VALID,156,VALID,0.886186,
2004-04-15, 02:38:00,VALID,916.511,VALID,0,VALID,100,VALID,0.0169808,VALID,20.3891,VALID,148,VALID,1.00741,
2004-04-15, 02:39:00,VALID,916.522,VALID,0,VALID,100,VALID,0.0339617,VALID,20.3689,VALID,140,VALID,1.01602,
2004-04-15, 02:40:00,VALID,916.53,VALID,0,VALID,100,VALID,0.0339617,VALID,20.3689,VALID,134,VALID,0.776042,
2004-04-15, 02:41:00,VALID,916.544,VALID,0,VALID,100,VALID,0.0339617,VALID,20.3767,VALID,137,VALID,0.79127,
2004-04-15, 02:42:00,VALID,916.557,VALID,0,VALID,100,VALID,0.0339617,VALID,20.3622,VALID,134,VALID,0.899479,
2004-04-15, 02:43:00,VALID,916.559,VALID,0,VALID,100,VALID,0,VALID,20.363,VALID,135,VALID,0.671875,
2004-04-15, 02:44:00,VALID,916.555,VALID,0,VALID,100,VALID,0.0169808,VALID,20.3662,VALID,134,VALID,0.909412,
2004-04-15, 02:45:00,VALID,916.558,VALID,0,VALID,100,VALID,0.0339617,VALID,20.3662,VALID,124,VALID,0.82649,
2004-04-15, 02:46:00,VALID,916.551,VALID,0,VALID,100,VALID,0.0339617,VALID,20.3528,VALID,125,VALID,0.646763,
2004-04-15, 02:47:00,VALID,916.539,VALID,0,VALID,100,VALID,0.0169808,VALID,20.3732,VALID,127,VALID,0.435014,
2004-04-15, 02:48:00,VALID,916.538,VALID,0,VALID,100,VALID,0.0339617,VALID,20.3762,VALID,130,VALID,0.167411,
2004-04-15, 02:49:00,VALID,916.539,VALID,0,VALID,100,VALID,0.0339617,VALID,20.3724,VALID,130,VALID,0.0967685,
2004-04-15, 02:50:00,VALID,916.522,VALID,0,VALID,100,VALID,0,VALID,20.405,VALID,131,VALID,0.255682,
2004-04-15, 02:51:00,VALID,916.518,VALID,0,VALID,100,VALID,0,VALID,20.4085,VALID,168,VALID,0.353237,
2004-04-15, 02:52:00,VALID,916.511,VALID,0,VALID,100,VALID,0.0509425,VALID,20.4147,VALID,195,VALID,0.255814,
2004-04-15, 02:53:00,VALID,916.503,VALID,0,VALID,100,VALID,0.0339617,VALID,20.4176,VALID,196,VALID,0.165039,
2004-04-15, 02:54:00,VALID,916.49,VALID,0,VALID,100,VALID,0,VALID,20.4052,VALID,197,VALID,0.237614,
2004-04-15, 02:55:00,VALID,916.472,VALID,0,VALID,100,VALID,0.0169808,VALID,20.4047,VALID,197,VALID,0.229167,
2004-04-15, 02:56:00,VALID,916.451,VALID,0,VALID,100,VALID,0.0339617,VALID,20.3985,VALID,184,VALID,0.154447,
2004-04-15, 02:57:00,VALID,916.427,VALID,0,VALID,100,VALID,0.0339617,VALID,20.3886,VALID,175,VALID,0.068314,
2004-04-15, 02:58:00,VALID,916.408,VALID,0,VALID,100,VALID,0.0339617,VALID,20.392,VALID,148,VALID,0.383194,
2004-04-15, 02:59:00,VALID,916.405,VALID,0,VALID,100,VALID,0.0169808,VALID,20.3759,VALID,127,VALID,0.632994,
2004-04-15, 03:00:00,VALID,916.388,VALID,0,VALID,100,VALID,0.0509425,VALID,20.3687,VALID,117,VALID,0.746626,
2004-04-15, 03:01:00,VALID,916.404,VALID,0,VALID,100,VALID,0.0679233,VALID,20.3727,VALID,130,VALID,0.878634,
2004-04-15, 03:02:00,VALID,916.412,VALID,0,VALID,100,VALID,-0.0339617,VALID,20.3436,VALID,125,VALID,0.604651,
2004-04-15, 03:03:00,VALID,916.417,VALID,0,VALID,100,VALID,-0.0849042,VALID,20.3583,VALID,95,VALID,0.846354,
2004-04-15, 03:04:00,VALID,916.419,VALID,0,VALID,100,VALID,-0.0849042,VALID,20.3578,VALID,69,VALID,0.740473,
2004-04-15, 03:05:00,VALID,916.413,VALID,0,VALID,100,VALID,-0.0339617,VALID,20.374,VALID,70,VALID,0.628049,
2004-04-15, 03:06:00,VALID,916.405,VALID,0,VALID,100,VALID,-0.101885,VALID,20.3675,VALID,92,VALID,0.727412,
2004-04-15, 03:07:00,VALID,916.386,VALID,0,VALID,100,VALID,-0.101885,VALID,20.3742,VALID,64,VALID,0.682594,
2004-04-15, 03:08:00,VALID,916.357,VALID,0,VALID,100,VALID,-0.0849042,VALID,20.3836,VALID,63,VALID,0.655107,
2004-04-15, 03:09:00,VALID,916.344,VALID,0,VALID,100,VALID,-0.101885,VALID,20.3772,VALID,61,VALID,0.696911,
2004-04-15, 03:10:00,VALID,916.325,VALID,0,VALID,100,VALID,-0.0849042,VALID,20.3904,VALID,61,VALID,0.641211,
2004-04-15, 03:11:00,VALID,916.317,VALID,0,VALID,100,VALID,-0.0509425,VALID,20.3869,VALID,39,VALID,0.792614,
2004-04-15, 03:12:00,VALID,916.317,VALID,0,VALID,100,VALID,-0.101885,VALID,20.3874,VALID,26,VALID,0.677973,
2004-04-15, 03:13:00,VALID,916.327,VALID,0,VALID,100,VALID,-0.0849042,VALID,20.3968,VALID,24,VALID,0.406441,
2004-04-15, 03:14:00,VALID,916.317,VALID,0,VALID,100,VALID,-0.0679233,VALID,20.3931,VALID,24,VALID,0.340909,
2004-04-15, 03:15:00,VALID,916.31,VALID,0,VALID,100,VALID,-0.0339617,VALID,20.4057,VALID,24,VALID,0.217685,
2004-04-15, 03:16:00,VALID,916.289,VALID,0,VALID,100,VALID,-0.0849042,VALID,20.4165,VALID,24,VALID,0,
2004-04-15, 03:17:00,VALID,916.272,VALID,0,VALID,100,VALID,-0.0509425,VALID,20.406,VALID,24,VALID,0.0185764,
2004-04-15, 03:18:00,VALID,916.253,VALID,0,VALID,100,VALID,-0.0169808,VALID,20.4092,VALID,24,VALID,0,
2004-04-15, 03:19:00,VALID,916.214,VALID,0,VALID,100,VALID,-0.0169808,VALID,20.409,VALID,24,VALID,0,
2004-04-15, 03:20:00,VALID,916.21,VALID,0,VALID,100,VALID,-0.0679233,VALID,20.403,VALID,24,VALID,0,
2004-04-15, 03:21:00,VALID,916.183,VALID,0,VALID,100,VALID,-0.0679233,VALID,20.3772,VALID,24,VALID,0,
2004-04-15, 03:22:00,VALID,916.172,VALID,0,VALID,100,VALID,-0.0509425,VALID,20.3804,VALID,24,VALID,0,
2004-04-15, 03:23:00,VALID,916.174,VALID,0,VALID,100,VALID,-0.101885,VALID,20.3836,VALID,24,VALID,0,
2004-04-15, 03:24:00,VALID,916.173,VALID,0,VALID,100,VALID,-0.0679233,VALID,20.3968,VALID,24,VALID,0,
2004-04-15, 03:25:00,VALID,916.174,VALID,0,VALID,100,VALID,-0.0849042,VALID,20.4197,VALID,24,VALID,0,
2004-04-15, 03:26:00,VALID,916.178,VALID,0,VALID,100,VALID,-0.101885,VALID,20.4127,VALID,24,VALID,0,
2004-04-15, 03:27:00,VALID,916.163,VALID,0,VALID,100,VALID,-0.0509425,VALID,20.4227,VALID,24,VALID,0,
2004-04-15, 03:28:00,VALID,916.168,VALID,0,VALID,100,VALID,-0.0849042,VALID,20.4259,VALID,24,VALID,0,
2004-04-15, 03:29:00,VALID,916.157,VALID,0,VALID,100,VALID,-0.0849042,VALID,20.4291,VALID,24,VALID,0,
2004-04-15, 03:30:00,VALID,916.159,VALID,0,VALID,100,VALID,-0.0509425,VALID,20.4256,VALID,24,VALID,0,
2004-04-15, 03:31:00,VALID,916.173,VALID,0,VALID,100,VALID,-0.0509425,VALID,20.4224,VALID,50,VALID,0.0170785,
2004-04-15, 03:32:00,VALID,916.179,VALID,0,VALID,100,VALID,-0.0849042,VALID,20.4259,VALID,88,VALID,0.441592,
2004-04-15, 03:33:00,VALID,916.163,VALID,0,VALID,100,VALID,-0.0679233,VALID,20.4165,VALID,125,VALID,0.56321,
2004-04-15, 03:34:00,VALID,916.151,VALID,0,VALID,100,VALID,-0.0509425,VALID,20.3963,VALID,142,VALID,0.632635,
2004-04-15, 03:35:00,VALID,916.153,VALID,0,VALID,100,VALID,-0.0509425,VALID,20.3904,VALID,147,VALID,0.622337,
2004-04-15, 03:36:00,VALID,916.145,VALID,0,VALID,100,VALID,-0.0169808,VALID,20.3831,VALID,145,VALID,0.390811,
2004-04-15, 03:37:00,VALID,916.154,VALID,0,VALID,100,VALID,-0.0339617,VALID,20.3971,VALID,140,VALID,0.356712,
2004-04-15, 03:38:00,VALID,916.14,VALID,0,VALID,100,VALID,-0.0169808,VALID,20.3936,VALID,139,VALID,0.12862,
2004-04-15, 03:39:00,VALID,916.146,VALID,0,VALID,100,VALID,-0.0509425,VALID,20.3834,VALID,139,VALID,0.253348,
2004-04-15, 03:40:00,VALID,916.143,VALID,0,VALID,100,VALID,-0.0169808,VALID,20.3839,VALID,134,VALID,0.398251,